sat.trackr.live / text

‹ back to catalog

STARLINK-34767

NORAD 66507 · 2025-263Y

PAYLOAD ACTIVE UNKNOWN

§ Identity

Operator
Country
US
Launch date
2025-11-15
Launch site
AFETR
Launch vehicle
Mass (kg)
RCS (m²)

Purposes: comms

External: N2YO · Heavens-Above · Gunter

§ Orbital elements

Epoch: 2026-09-20T15:44:36.977856Z

Period
94.26 min
Inclination
43.0033°
Eccentricity
0.0001663
Mean motion
15.27618556 rev/d
Perigee alt
481.8 km
Apogee alt
484.1 km
Semi-major
6,861.1 km
B*
6.8120e-4
RAAN
329.8778°
Arg perigee
264.2336°
Mean anomaly
95.8327°
Rev number
4,871

§ Raw data

STARLINK-347671 66507U 25263Y   26263.65598354  .00018552  00000+0  68120-3 0  99962 66507  43.0033 329.8778 0001663 264.2336  95.8327 15.27618556 48715

JSON: /api/v1/satellites/66507 · /tle

For live sub-satellite position, see the globe view (requires WebGL).

§ Visibility from observer

Set your observer location to see the next 7 days of passes ≥ 10°. The values pass through the URL so the page stays shareable.

No JS? Fill the form by hand. The geolocation button needs JavaScript.